Regional Weather Roundup
Issued by NWS Spokane, WA

Home | Current Version | Previous Version | Text Only | Print | Product List | Glossary On
Versions: 1 2 3 4 5 6 7 8 9 10 11 12 13 14 15 16 17 18 19 20 21 22 23 24 25 26 27 28 29 30 31 32 33 34 35 36 37 38 39 40 41 42 43 44 45 46 47 48 49 50
000
NZUS01 KOTX 280105
RWROTX
EASTERN WASHINGTON/NORTHERN IDAHO ROUNDUP
NATIONAL WEATHER SERVICE, SPOKANE WA
600 PM PDT WED AUG 27 2014

Note: "fair" indicated few or no clouds below 12,000 feet with no
significant weather and/or obstructions to visibility.

...NORTHEAST WASHINGTON AND NORTHERN IDAHO PANHANDLE...

CITY           SKY/WX    TMP DP  RH WIND       PRES   REMARKS
SPOKANE INTL   MOSUNNY   88  44  21 S13       29.97F
SPOKANE DOWNTO SUNNY     90  42  18 SW9       29.95F
COEUR D ALENE  SUNNY     88  46  23 W9        29.95F
DEER PARK      PTSUNNY   89  44  20 SW14G21   29.95F
SANDPOINT      MOSUNNY   82  46  28 CALM      29.96F

...SOUTHEAST WASHINGTON AND SOUTHERN IDAHO PANHANDLE...

CITY           SKY/WX    TMP DP  RH WIND       PRES   REMARKS
WALLA WALLA    SUNNY     94  46  19 SW5       29.92F HX  90
PULLMAN/MOSCOW SUNNY     86  42  21 W9        30.01F
LEWISTON       SUNNY     92  44  19 SW5       29.92F
LOWELL           N/A     74  55  51 VRB5      29.93F

...COLUMBIA BASIN...

CITY           SKY/WX    TMP DP  RH WIND       PRES   REMARKS
EPHRATA        SUNNY     92  50  23 S13       29.88F
MOSES LAKE     SUNNY     93  49  22 S12       29.89F HX  90
TRI CITIES     SUNNY     98  50  19 SW10      29.84F HX  95
HERMISTON      SUNNY     97  50  20 W9        29.86F HX  94
PENDLETON      SUNNY     93  45  19 NW7       29.92F

...EAST SLOPES CASCADES...

CITY           SKY/WX    TMP DP  RH WIND       PRES   REMARKS
THE DALLES     SUNNY     92  52  25 W25G33    29.88S
YAKIMA         MOSUNNY   92  59  33 S8        29.89S HX  91
ELLENSBURG     MOSUNNY   86  55  34 NW22G30   29.95S
WENATCHEE      SUNNY     94  53  25 E3        29.87F HX  91
OMAK           SUNNY     93  51  23 SW7       29.85F HX  90

...SOUTHERN BRITISH COLUMBIA...

CITY           SKY/WX    TMP DP  RH WIND       PRES   REMARKS

...WESTERN MONTANA...

CITY           SKY/WX    TMP DP  RH WIND       PRES   REMARKS
MISSOULA       SUNNY     83  46  27 S7        30.02F

...NEIGHBORING CITIES...

CITY           SKY/WX    TMP DP  RH WIND       PRES   REMARKS
SEATTLE        MOSUNNY   83  56  39 CALM      30.01F



USA.gov is the U.S. government's official web portal to all federal, state and local government web resources and services.